Weather History for KRIC - January, 2015

Change the Weather History Date:

Monday, January 5, 2015

  Actual Average Record
Temperature  
Mean Temperature 43 °F 38 °F  
Max Temperature 56 °F 47 °F 76 °F (1950)
Min Temperature 29 °F 28 °F 6 °F (1981)
Degree Days  
Heating Degree Days 22 27  
Month to date heating degree days 94 135  
Since 1 July heating degree days 1410 1554  
Cooling Degree Days 0 0  
Month to date cooling degree days 0 0  
Year to date cooling degree days 0 0  
Moisture  
Dew Point 19 °F    
Average Humidity 36    
Maximum Humidity 50    
Minimum Humidity 21    
Precipitation  
Precipitation 0.00 in 0.10 in 1.36 in (1931)
Month to date precipitation 0.15 0.47  
Year to date precipitation 0.15 0.47  
Snow  
Snow 0.00 in 0.10 in 13.30 in (1980)
Month to date snowfall 0.0 0.4  
Since 1 July snowfall T 2.7  
Snow Depth 0.00 in    
Sea Level Pressure  
Sea Level Pressure 30.29 in    
Wind  
Wind Speed 11 mph (NW)    
Max Wind Speed 24 mph    
Max Gust Speed 33 mph    
Visibility 10 miles    
Events      
T = Trace of Precipitation, MM = Missing Value Source: NWS Daily Summary

Daily Weather History Graph

Daily Weather History Graph

Search for Another Location

Airport or City:

Trip Planner

Search our weather history database for the weather conditions in past years. The results will help you decide how hot, cold, wet, or windy it might be!

Date:

Astronomy

Jan. 05, 2015 Rise Set
Actual Time 7:24 AM EST 5:05 PM EST
Civil Twilight 6:55 AM EST 5:34 PM EST
Nautical Twilight 6:22 AM EST 6:06 PM EST
Astronomical Twilight 5:51 AM EST 6:38 PM EST
Moon 5:55 PM EST (1/5) 7:21 AM EST (1/5)
Length of Visible Light 10h 38m
Length of Day
9h 40m
Full, 100% of the Moon is Illuminated
Jan 5
Full
Jan 13
Last Quarter
Jan 20
New
Jan 26
First Quarter
Feb 3
Full

Hourly Weather History & Observations

Time (EST) Temp. Windchill Dew Point Humidity Pressure Visibility Wind Dir Wind Speed Gust Speed Precip Events Conditions
12:54 AM 53.1 °F - 30.9 °F 43% 30.03 in 10.0 mi WNW 16.1 mph 27.6 mph N/A   Partly Cloudy
1:54 AM 51.1 °F - 28.9 °F 43% 30.07 in 10.0 mi WNW 13.8 mph 20.7 mph N/A   Mostly Cloudy
2:54 AM 50.0 °F - 28.0 °F 43% 30.10 in 10.0 mi West 11.5 mph - N/A   Mostly Cloudy
3:54 AM 48.0 °F - 26.1 °F 42% 30.11 in 10.0 mi NW 17.3 mph - N/A   Mostly Cloudy
4:54 AM 46.9 °F - 26.1 °F 44% 30.15 in 10.0 mi WNW 15.0 mph 20.7 mph N/A   Mostly Cloudy
5:54 AM 45.0 °F 38.5 °F 26.1 °F 48% 30.19 in 10.0 mi West 13.8 mph 19.6 mph N/A   Mostly Cloudy
6:54 AM 44.1 °F 39.0 °F 24.1 °F 45% 30.22 in 10.0 mi West 9.2 mph - N/A   Mostly Cloudy
7:54 AM 43.0 °F 38.8 °F 24.1 °F 47% 30.25 in 10.0 mi WSW 6.9 mph - N/A   Partly Cloudy
8:54 AM 45.0 °F 40.6 °F 25.0 °F 46% 30.28 in 10.0 mi WSW 8.1 mph - N/A   Scattered Clouds
9:54 AM 48.0 °F - 23.0 °F 37% 30.30 in 10.0 mi West 10.4 mph - N/A   Scattered Clouds
10:54 AM 48.9 °F - 23.0 °F 36% 30.32 in 10.0 mi WNW 16.1 mph 21.9 mph N/A   Scattered Clouds
11:54 AM 50.0 °F - 19.9 °F 31% 30.31 in 10.0 mi WNW 18.4 mph 26.5 mph N/A   Scattered Clouds
12:54 PM 50.0 °F - 12.9 °F 23% 30.29 in 10.0 mi WNW 19.6 mph 29.9 mph N/A   Scattered Clouds
1:54 PM 50.0 °F - 14.0 °F 24% 30.30 in 10.0 mi WNW 20.7 mph 27.6 mph N/A   Scattered Clouds
2:54 PM 50.0 °F - 14.0 °F 24% 30.32 in 10.0 mi WNW 15.0 mph - N/A   Scattered Clouds
3:54 PM 48.9 °F - 12.9 °F 24% 30.34 in 10.0 mi NW 13.8 mph - N/A   Partly Cloudy
4:54 PM 45.0 °F 39.7 °F 10.9 °F 25% 30.37 in 10.0 mi NW 10.4 mph - N/A   Partly Cloudy
5:54 PM 42.1 °F 37.1 °F 10.9 °F 28% 30.40 in 10.0 mi NNW 8.1 mph - N/A   Partly Cloudy
6:54 PM 37.9 °F 32.1 °F 12.0 °F 35% 30.43 in 10.0 mi NNW 8.1 mph - N/A   Partly Cloudy
7:54 PM 36.0 °F 31.1 °F 12.2 °F 38% 30.44 in 10.0 mi North 5.8 mph - N/A   Partly Cloudy
8:54 PM 34.0 °F 28.8 °F 8.2 °F 34% 30.47 in 10.0 mi NNE 5.8 mph - N/A   Scattered Clouds
9:54 PM 32.0 °F 26.4 °F 10.4 °F 41% 30.48 in 10.0 mi NNE 5.8 mph - N/A   Scattered Clouds
10:54 PM 28.9 °F - 12.2 °F 50% 30.47 in 10.0 mi Calm Calm - N/A   Scattered Clouds
11:54 PM 30.0 °F 25.2 °F 12.0 °F 47% 30.45 in 10.0 mi NE 4.6 mph - N/A   Mostly Cloudy